KE8GJZ-2 Weather Reports


Display with metric or nautical units.
time (UTC)temp
F
wind
direction
speed
MPH
gust
MPH
rain 1hr
in
rain 24hr
in
rain mn
in
humidity
%
barometer
mb
20260509043114 47 195 0.0 0.0 0.00 0.00 0.00 74 1006.2
20260509042611 47 195 0.0 0.0 0.00 0.00 0.00 75 1006.2
20260509042106 47 195 1.0 2.0 0.00 0.00 0.00 76 1006.1
20260509041604 47 195 0.0 0.0 0.00 0.00 0.00 76 1006.1
20260509041101 46 195 0.0 0.0 0.00 0.00 0.00 76 1006.4
20260509040600 46 195 0.0 0.0 0.00 0.00 0.00 77 1006.4
20260509040056 46 195 0.0 0.0 0.00 0.00 0.00 77 1006.2
20260509035553 47 195 0.0 0.0 0.00 0.00 0.00 77 1006.5
20260509035049 47 195 0.0 0.0 0.00 0.00 0.00 79 1006.2
20260509034548 47 195 0.0 2.0 0.00 0.00 0.00 80 1006.3
20260509034044 47 190 2.0 3.0 0.00 0.00 0.00 83 1006.3
20260509033542 47 196 0.0 1.0 0.00 0.00 0.00 84 1006.4
20260509033039 47 196 0.0 2.0 0.00 0.00 0.00 83 1006.5
20260509032536 47 196 0.0 1.0 0.00 0.00 0.00 82 1006.6
20260509032033 47 196 1.0 2.0 0.00 0.00 0.00 82 1006.4
20260509031530 47 196 0.0 0.0 0.00 0.00 0.00 81 1006.8
20260509031027 47 196 0.0 1.0 0.00 0.00 0.00 82 1006.6
20260509030526 48 195 1.0 2.0 0.00 0.00 0.00 83 1006.7
20260509030022 48 196 1.0 1.0 0.00 0.00 0.00 82 1006.6
20260509025518 48 195 1.0 1.0 0.00 0.00 0.00 81 1006.8
20260509025014 48 196 1.0 1.0 0.00 0.00 0.00 79 1006.7
20260509024509 48 196 1.0 2.0 0.00 0.00 0.00 78 1006.8
20260509024006 49 201 1.0 2.0 0.00 0.00 0.00 76 1006.9
20260509023504 49 202 0.0 2.0 0.00 0.00 0.00 74 1006.8
20260509023001 49 201 1.0 2.0 0.00 0.00 0.00 74 1006.7
20260509022457 49 202 0.0 0.0 0.00 0.00 0.00 74 1006.7
20260509021955 49 201 0.0 0.0 0.00 0.00 0.00 75 1006.8
20260509021452 49 201 0.0 0.0 0.00 0.00 0.00 73 1006.9
20260509020949 50 201 0.0 2.0 0.00 0.00 0.00 75 1006.9
20260509020447 50 211 1.0 1.0 0.00 0.00 0.00 71 1006.8
20260509015943 50 212 0.0 0.0 0.00 0.00 0.00 69 1006.8
20260509015443 50 212 0.0 0.0 0.00 0.00 0.00 68 1006.8
20260509014939 51 212 0.0 0.0 0.00 0.00 0.00 65 1006.8
20260509014436 51 212 0.0 0.0 0.00 0.00 0.00 64 1006.7
20260509013932 51 212 0.0 0.0 0.00 0.00 0.00 61 1006.7
20260509013429 51 212 1.0 2.0 0.00 0.00 0.00 62 1006.8
20260509012924 52 212 1.0 2.0 0.00 0.00 0.00 61 1006.7
20260509012421 52 213 0.0 0.0 0.00 0.00 0.00 56 1006.6
20260509011919 52 213 0.0 0.0 0.00 0.00 0.00 56 1006.6
20260509011416 53 213 0.0 1.0 0.00 0.00 0.00 56 1006.5
20260509010914 53 213 0.0 1.0 0.00 0.00 0.00 50 1006.4
20260509010411 54 213 1.0 2.0 0.00 0.00 0.00 47 1006.6
20260509005907 54 213 1.0 1.0 0.00 0.00 0.00 47 1006.4
20260509005406 55 213 1.0 2.0 0.00 0.00 0.00 49 1006.4
20260509004906 55 213 1.0 2.0 0.00 0.00 0.00 47 1006.7
20260509004402 56 213 1.0 2.0 0.00 0.00 0.00 48 1006.5
20260509003900 56 213 1.0 2.0 0.00 0.00 0.00 48 1006.3
20260509003358 57 213 1.0 2.0 0.00 0.00 0.00 47 1006.4
20260509002854 57 213 1.0 2.0 0.00 0.00 0.00 47 1006.3
20260509002352 57 213 1.0 1.0 0.00 0.00 0.00 46 1006.2
20260509001850 58 213 1.0 2.0 0.00 0.00 0.00 45 1006.3
20260509001345 58 213 3.0 3.0 0.00 0.00 0.00 44 1006.4
20260509000843 59 212 1.0 3.0 0.00 0.00 0.00 43 1006.5
20260509000341 59 220 0.0 2.0 0.00 0.00 0.00 43 1006.4
20260508235837 59 224 1.0 2.0 0.00 0.00 0.00 44 1006.4
20260508235334 60 227 1.0 2.0 0.00 0.00 0.00 42 1006.8
20260508234831 60 13 5.0 8.0 0.00 0.00 0.00 42 1006.4
20260508234327 60 244 1.0 2.0 0.00 0.00 0.00 39 1006.6
20260508233826 60 204 0.0 5.0 0.00 0.00 0.00 43 1006.7
20260508233325 61 280 3.0 5.0 0.00 0.00 0.00 38 1006.8
20260508232821 61 223 0.0 5.0 0.00 0.00 0.00 38 1006.9
20260508232317 61 233 3.0 3.0 0.00 0.00 0.00 35 1006.8
20260508231816 61 26 2.0 2.0 0.00 0.00 0.00 37 1006.7
20260508231312 62 229 1.0 6.0 0.00 0.00 0.00 37 1006.8
20260508230809 62 257 1.0 5.0 0.00 0.00 0.00 37 1006.7
20260508230305 62 286 1.0 7.0 0.00 0.00 0.00 40 1006.7
20260508225803 62 219 1.0 5.0 0.00 0.00 0.00 36 1006.6
20260508225259 62 332 8.0 13.0 0.00 0.00 0.00 34 1006.8
20260508224757 63 200 1.0 6.0 0.00 0.00 0.00 34 1006.7
20260508224255 63 244 1.0 6.0 0.00 0.00 0.00 33 1006.7
20260508223752 64 226 0.0 2.0 0.00 0.00 0.00 31 1006.5
20260508223249 64 29 4.0 7.0 0.00 0.00 0.00 32 1006.6
20260508222746 63 221 3.0 6.0 0.00 0.00 0.00 34 1006.8
20260508222244 63 227 1.0 7.0 0.00 0.00 0.00 30 1006.9
20260508221740 63 200 2.0 2.0 0.00 0.00 0.00 32 1006.8
20260508221236 63 18 6.0 14.0 0.00 0.00 0.00 33 1006.7
20260508220732 63 284 1.0 1.0 0.00 0.00 0.00 34 1006.8
20260508220229 63 253 2.0 6.0 0.00 0.00 0.00 29 1006.9
20260508215725 64 352 2.0 3.0 0.00 0.00 0.00 33 1007.0
20260508215222 63 352 3.0 6.0 0.00 0.00 0.00 34 1006.9
20260508214719 63 221 3.0 13.0 0.00 0.00 0.00 35 1006.9
20260508214217 63 328 7.0 10.0 0.00 0.00 0.00 32 1006.9
20260508213713 63 16 8.0 10.0 0.00 0.00 0.00 30 1006.9
20260508213209 63 225 2.0 6.0 0.00 0.00 0.00 34 1006.9
20260508212706 62 236 3.0 6.0 0.00 0.00 0.00 32 1006.9
20260508212203 63 0 3.0 6.0 0.00 0.00 0.00 36 1007.0
20260508211658 63 44 5.0 10.0 0.00 0.00 0.00 32 1007.0
20260508211154 63 352 5.0 7.0 0.00 0.00 0.00 34 1007.1
20260508210651 63 9 3.0 7.0 0.00 0.00 0.00 33 1007.1
20260508210149 63 351 4.0 6.0 0.00 0.00 0.00 34 1007.0
20260508205646 63 15 3.0 5.0 0.00 0.00 0.00 30 1006.9
20260508205142 63 251 2.0 5.0 0.00 0.00 0.00 31 1007.1
20260508204638 63 316 2.0 2.0 0.00 0.00 0.00 30 1007.2
20260508204134 64 350 4.0 7.0 0.00 0.00 0.00 30 1007.0
20260508203631 62 238 3.0 7.0 0.00 0.00 0.00 35 1007.2
20260508203127 63 345 6.0 11.0 0.00 0.00 0.00 31 1007.4
20260508202623 63 317 4.0 5.0 0.00 0.00 0.00 33 1007.4
20260508202120 63 162 4.0 8.0 0.00 0.00 0.00 31 1007.5
20260508201617 63 265 6.0 9.0 0.00 0.00 0.00 34 1007.3
20260508201114 63 18 6.0 9.0 0.00 0.00 0.00 30 1007.7
20260508200611 64 27 5.0 7.0 0.00 0.00 0.00 32 1007.7
20260508200107 64 231 1.0 6.0 0.00 0.00 0.00 34 1007.6
20260508195603 64 241 3.0 3.0 0.00 0.00 0.00 31 1007.5
20260508195100 64 221 1.0 6.0 0.00 0.00 0.00 32 1007.7
20260508194556 64 185 1.0 3.0 0.00 0.00 0.00 34 1008.0
20260508194054 63 81 2.0 5.0 0.00 0.00 0.00 33 1007.8
20260508193550 63 242 3.0 11.0 0.00 0.00 0.00 33 1007.9
20260508193047 63 19 2.0 3.0 0.00 0.00 0.00 34 1008.2
20260508192544 63 309 3.0 6.0 0.00 0.00 0.00 36 1008.2
20260508192041 62 222 1.0 8.0 0.00 0.00 0.00 31 1008.2
20260508191537 63 36 5.0 8.0 0.00 0.00 0.00 32 1008.1
20260508191034 63 238 2.0 8.0 0.00 0.00 0.00 31 1008.3
20260508190531 63 200 1.0 6.0 0.00 0.00 0.00 36 1008.2
20260508190028 62 243 3.0 10.0 0.00 0.00 0.00 37 1008.4
20260508185525 63 281 3.0 6.0 0.00 0.00 0.00 33 1008.5
20260508185023 62 343 6.0 9.0 0.00 0.00 0.00 38 1008.8
20260508184520 62 146 2.0 5.0 0.00 0.00 0.00 35 1008.7
20260508184017 62 283 1.0 3.0 0.00 0.00 0.00 39 1008.6
20260508183513 62 11 4.0 7.0 0.00 0.00 0.00 33 1008.7
20260508183009 61 318 11.0 15.0 0.00 0.00 0.00 34 1008.6
20260508182506 61 9 8.0 9.0 0.00 0.00 0.00 34 1008.6
20260508182002 62 17 3.0 5.0 0.00 0.00 0.00 34 1008.8
20260508181458 61 135 4.0 8.0 0.00 0.00 0.00 34 1008.9
20260508180955 61 254 5.0 10.0 0.00 0.00 0.00 38 1009.0
20260508180452 61 349 5.0 6.0 0.00 0.00 0.00 35 1009.0
20260508175948 61 339 5.0 9.0 0.00 0.00 0.00 34 1009.1
20260508175444 61 316 4.0 7.0 0.00 0.00 0.00 36 1009.1
20260508174942 61 5 6.0 8.0 0.00 0.00 0.00 35 1009.2
20260508174439 61 17 4.0 8.0 0.00 0.00 0.00 34 1009.3
20260508130235 49 153 1.0 2.0 0.00 0.00 0.00 90 1012.4
20260508125731 49 153 1.0 2.0 0.00 0.00 0.00 90 1012.4
20260508125227 49 87 1.0 3.0 0.00 0.00 0.00 90 1012.5
20260508124726 49 187 1.0 2.0 0.00 0.00 0.00 89 1012.6
20260508124222 49 168 1.0 3.0 0.00 0.00 0.00 90 1012.6
20260508123720 49 197 2.0 2.0 0.00 0.00 0.00 90 1012.8
20260508123218 48 184 1.0 2.0 0.00 0.00 0.00 91 1012.6
20260508122714 48 166 0.0 2.0 0.00 0.00 0.00 92 1012.7
20260508122211 47 148 0.0 2.0 0.00 0.00 0.00 93 1012.8
20260508121709 46 158 1.0 2.0 0.00 0.00 0.00 94 1012.7
20260508121207 46 130 3.0 3.0 0.00 0.00 0.00 94 1012.5
20260508120704 45 176 1.0 2.0 0.00 0.00 0.00 95 1012.5
20260508120202 44 164 1.0 2.0 0.00 0.00 0.00 96 1012.5
20260508115659 43 178 1.0 2.0 0.00 0.00 0.00 97 1012.6
20260508115156 43 165 0.0 1.0 0.00 0.00 0.00 97 1012.6
20260508114653 42 161 2.0 3.0 0.00 0.00 0.00 98 1012.5
20260508114150 41 177 2.0 2.0 0.00 0.00 0.00 98 1012.4
20260508113646 41 191 1.0 1.0 0.00 0.00 0.00 99 1012.4
20260508113145 40 178 2.0 2.0 0.00 0.00 0.00 99 1012.5
20260508112641 39 186 2.0 2.0 0.00 0.00 0.00 99 1012.4
20260508112138 39 196 1.0 2.0 0.00 0.00 0.00 99 1012.3
20260508111634 39 204 0.0 0.0 0.00 0.00 0.00 99 1012.3
20260508111132 39 204 1.0 1.0 0.00 0.00 0.00 99 1012.3
20260508110630 39 207 0.0 1.0 0.00 0.00 0.00 99 1012.4
20260508110126 39 209 0.0 1.0 0.00 0.00 0.00 99 1012.3
20260508105626 38 213 0.0 1.0 0.00 0.00 0.00 99 1012.2
20260508105123 38 214 0.0 0.0 0.00 0.00 0.00 99 1012.1
20260508104621 38 215 0.0 0.0 0.00 0.00 0.00 99 1011.9
20260508104117 38 215 0.0 0.0 0.00 0.00 0.00 99 1011.8
20260508103614 38 217 0.0 0.0 0.00 0.00 0.00 99 1012.0
20260508103112 38 217 0.0 0.0 0.00 0.00 0.00 99 1011.9
20260508102609 38 217 0.0 0.0 0.00 0.00 0.00 99 1012.1
20260508102107 38 215 0.0 0.0 0.00 0.00 0.00 99 1011.9
20260508101604 38 215 0.0 1.0 0.00 0.00 0.00 99 1012.2
20260508101101 39 215 0.0 1.0 0.00 0.00 0.00 99 1011.8
20260508100559 38 201 0.0 1.0 0.00 0.00 0.00 99 1011.8
20260508100055 39 217 0.0 1.0 0.00 0.00 0.00 99 1011.9
20260508095553 38 217 0.0 1.0 0.00 0.00 0.00 99 1011.8
20260508095049 38 217 0.0 0.0 0.00 0.00 0.00 99 1011.8
20260508094547 38 217 1.0 1.0 0.00 0.00 0.00 99 1012.0
20260508094043 38 217 0.0 0.0 0.00 0.00 0.00 99 1011.8
20260508093541 39 205 1.0 2.0 0.00 0.00 0.00 99 1011.9
20260508093038 39 191 0.0 1.0 0.00 0.00 0.00 99 1011.9
20260508092535 39 214 0.0 1.0 0.00 0.00 0.00 99 1011.9
20260508092034 39 214 0.0 1.0 0.00 0.00 0.00 99 1011.9
20260508091531 39 214 0.0 0.0 0.00 0.00 0.00 99 1012.2
20260508091027 39 214 1.0 1.0 0.00 0.00 0.00 99 1011.7
20260508090526 39 213 1.0 2.0 0.00 0.00 0.00 99 1012.0
20260508090022 39 215 0.0 0.0 0.00 0.00 0.00 99 1011.9
20260508085519 39 215 0.0 0.0 0.00 0.00 0.00 99 1012.0
20260508085016 39 214 0.0 0.0 0.00 0.00 0.00 99 1011.9
20260508084513 40 214 0.0 1.0 0.00 0.00 0.00 99 1012.1
20260508084010 40 214 0.0 1.0 0.00 0.00 0.00 99 1012.0
20260508083507 40 214 1.0 1.0 0.00 0.00 0.00 99 1012.0
20260508083003 40 214 0.0 0.0 0.00 0.00 0.00 99 1011.8
20260508082459 40 213 0.0 0.0 0.00 0.00 0.00 99 1011.9
20260508081957 40 213 0.0 0.0 0.00 0.00 0.00 99 1011.8
20260508081454 40 213 0.0 0.0 0.00 0.00 0.00 99 1011.9
20260508080950 40 213 0.0 0.0 0.00 0.00 0.00 99 1011.7
20260508080449 40 210 1.0 1.0 0.00 0.00 0.00 99 1011.9
20260508075945 40 209 0.0 0.0 0.00 0.00 0.00 98 1011.9
20260508075442 40 209 0.0 0.0 0.00 0.00 0.00 98 1011.8
20260508074939 40 209 0.0 0.0 0.00 0.00 0.00 98 1011.9
20260508074437 40 209 0.0 1.0 0.00 0.00 0.00 98 1011.9
20260508073934 41 209 0.0 0.0 0.00 0.00 0.00 98 1011.9
20260508073431 41 209 1.0 1.0 0.00 0.00 0.00 98 1011.9
20260508072928 41 209 0.0 0.0 0.00 0.00 0.00 98 1012.1
20260508072424 41 209 0.0 0.0 0.00 0.00 0.00 98 1011.9
20260508071922 41 209 0.0 0.0 0.00 0.00 0.00 98 1011.9
20260508071420 41 208 0.0 0.0 0.00 0.00 0.00 98 1011.9
20260508070917 41 208 0.0 0.0 0.00 0.00 0.00 98 1012.0
20260508070415 41 208 0.0 0.0 0.00 0.00 0.00 98 1011.9
20260508065912 41 208 0.0 0.0 0.00 0.00 0.00 98 1012.0
20260508065410 41 208 0.0 0.0 0.00 0.00 0.00 98 1012.1
20260508064908 41 207 0.0 0.0 0.00 0.00 0.00 98 1012.0
20260508064405 41 207 0.0 0.0 0.00 0.00 0.00 98 1012.1
20260508063903 41 207 0.0 0.0 0.00 0.00 0.00 98 1012.2
20260508063401 41 207 0.0 1.0 0.00 0.00 0.00 98 1012.3
20260508062857 41 207 0.0 0.0 0.00 0.00 0.00 98 1012.4
20260508062355 41 206 0.0 0.0 0.00 0.00 0.00 98 1012.5
20260508061852 41 206 0.0 1.0 0.00 0.00 0.00 97 1012.4
20260508061349 41 206 0.0 1.0 0.00 0.00 0.00 97 1012.5
20260508060846 41 206 0.0 0.0 0.00 0.00 0.00 97 1012.3
20260508060344 41 206 0.0 0.0 0.00 0.00 0.00 97 1012.5
20260508055838 41 206 1.0 1.0 0.00 0.00 0.00 97 1012.5
20260508055336 42 206 0.0 0.0 0.00 0.00 0.00 97 1012.4
20260508054832 42 206 0.0 0.0 0.00 0.00 0.00 97 1012.2
20260508054330 42 206 0.0 0.0 0.00 0.00 0.00 97 1012.3
20260508053827 42 206 0.0 0.0 0.00 0.00 0.00 97 1012.1
20260508053324 42 205 0.0 1.0 0.00 0.00 0.00 97 1012.0
20260508052821 42 205 1.0 1.0 0.00 0.00 0.00 97 1012.3
20260508052318 42 205 1.0 1.0 0.00 0.00 0.00 97 1012.1
20260508051815 42 206 0.0 1.0 0.00 0.00 0.00 97 1012.3
20260508051310 42 206 1.0 1.0 0.00 0.00 0.00 97 1012.3
20260508050807 42 206 0.0 0.0 0.00 0.00 0.00 96 1012.2
20260508050304 43 206 0.0 0.0 0.00 0.00 0.00 96 1012.2
20260508045759 43 206 0.0 0.0 0.00 0.00 0.00 96 1012.1
20260508045257 43 206 0.0 0.0 0.00 0.00 0.00 96 1012.2
20260508044755 43 206 0.0 0.0 0.00 0.00 0.00 96 1012.0
20260508044251 43 206 0.0 1.0 0.00 0.00 0.00 95 1012.0
20260508043747 43 206 0.0 0.0 0.00 0.00 0.00 95 1011.9